Location: Bishop�s Knoyle
(51.0728°N, 2.1714°W)
Time: 13:04:22
(UTC+00:00)

NOSS 3-4 (C) - Pass Details

Date: 21 January 2021
Orbit: 878 x 1335 km, 63.4° (Epoch: 16 February)

Event Time Altitude Azimuth Distance (km) Brightness Sun altitude
Rises 18:59:59 0° 277° (W) 3,549 7.9 -21.4°
Reaches altitude 10° 19:02:46 10° 288° (WNW) 2,653 6.7 -21.8°
Maximum altitude 19:08:10 30° 349° (N) 1,703 4.8 -22.7°
Enters shadow 19:11:05 22° 29° (NNE) 2,091 4.9 -23.1°
